This is the latest recevied weather packets stored in our database for station/object WB9FIU. If no packets are shown the sender has not sent any weather packets the latest 10 day(s).
| Time | Temp. | Humidity | Pressure | Rain* | Wind** | Luminosity | Snow |
|---|---|---|---|---|---|---|---|
| 1778157484 | 8.33° C | 68% | 1015.5 hPa | 0 mm | - | - | - |
| 1778157423 | 8.33° C | 70% | 1015.5 hPa | 0 mm | - | - | - |
| 1778157362 | 8.33° C | 70% | 1015.5 hPa | 0 mm | - | - | - |
| 1778157302 | 8.33° C | 70% | 1015.5 hPa | 0 mm | - | - | - |
| 1778157242 | 8.33° C | 71% | 1015.5 hPa | 0 mm | - | - | - |
| 1778157182 | 8.33° C | 72% | 1015.5 hPa | 0 mm | - | - | - |
| 1778157123 | 8.33° C | 71% | 1015.5 hPa | 0 mm | - | - | - |
| 1778155321 | 7.22° C | 75% | 1015.4 hPa | 0 mm | - | - | - |
| 1778155260 | 7.22° C | 75% | 1015.4 hPa | 0 mm | - | - | - |
| 1778154421 | 7.22° C | 79% | 1015.2 hPa | 0 mm | - | - | - |
| 1778154361 | 6.67° C | 78% | 1015.2 hPa | 0 mm | - | - | - |
| 1778153702 | 6.11° C | 80% | 1015.4 hPa | 0 mm | - | - | - |
| 1778153283 | 6.11° C | 80% | 1015.4 hPa | 0 mm | - | - | - |
| 1778153225 | 6.11° C | 80% | 1015.4 hPa | 0 mm | - | - | - |
| 1778153161 | 6.11° C | 80% | 1015.4 hPa | 0 mm | - | - | - |
| 1778153104 | 6.11° C | 80% | 1015.3 hPa | 0 mm | - | - | - |
| 1778152622 | 5.56° C | 80% | 1015.2 hPa | 0 mm | - | - | - |
| 1778152562 | 5.56° C | 80% | 1015.2 hPa | 0 mm | - | - | - |
| 1778152501 | 5.56° C | 80% | 1015.2 hPa | 0 mm | - | - | - |
| 1778152441 | 5.56° C | 81% | 1015.2 hPa | 0 mm | - | - | - |
| 1778152381 | 5.56° C | 81% | 1015.3 hPa | 0 mm | - | - | - |
| 1778152321 | 5.56° C | 80% | 1015.3 hPa | 0 mm | - | - | - |
| 1778151962 | 6.11° C | 80% | 1015.3 hPa | 0 mm | - | - | - |
| 1778151901 | 5.56° C | 80% | 1015.2 hPa | 0 mm | - | - | - |
| 1778151841 | 6.11° C | 80% | 1015.2 hPa | 0 mm | - | - | - |
* Rain latest hour (hover to see other rain measurements)
** Current wind speed in m/s (hover to see current wind gust speed)